Flag Weather past 2 weeks in Salt Lake City, Utah, U.S.A.

Now
26 °F

Passing clouds.


Feels Like: 18 °F
Forecast: 33 / 49 °F
Wind: 7 mph from Southeast

Location: Salt Lake City International Airport

Current Time: Nov 21, 2014 at 5:22:23 AM

Latest Report: Nov 21, 2014 at 4:53 AM


Visibility: 8 mi

Pressure: 30.05 "Hg

Humidity: 84%

Dew point: 22 °F

Location of Salt Lake CityLocation

Historic Weather in Salt Lake City — Graph

°F

Salt Lake City temperature yesterday

Maximum temperature yesterday: 50 °F (at 2:53 PM)
Minimum temperature yesterday: 28 °F (at 6:53 AM)
Average temperature yesterday: 36 °F

Past Weeks' High & Low Weather Summary

 TemperatureHumidityPressure
High66 °F (Nov 9, 3:53 PM)97% (Nov 15, 1:53 AM)30.64 "Hg (Nov 15, 1:53 AM)
Low16 °F (Nov 16, 3:53 AM)23% (Nov 9, 3:53 PM)29.54 "Hg (Nov 10, 1:53 AM)
Average36 °F62%30.18 "Hg
* Reported Nov 6 3:53 AM — Nov 21 3:53 AM, Salt Lake City, Weather by CustomWeather, © 2014

Note: Actual official high and low records may vary slightly from our data, if they occured in-between our weather recording intervals... More about our weather records

Advertising

Salt Lake City weather history for previous 24 hours

 ConditionsComfort  
Time TempWeatherWind HumidityBarometerVisibility
3:53 AM
Nov 21
28 °FPassing clouds.3 mph81%30.03 "Hg8 mi
2:53 AM26 °FPassing clouds.5 mph88%30.02 "Hg8 mi
1:53 AM28 °FPassing clouds.No wind85%30.01 "Hg8 mi
12:53 AM30 °FHaze.6 mph79%30.01 "Hg6 mi
11:53 PM
Nov 20
31 °FIce fog.3 mph85%30.03 "Hg6 mi
10:53 PM34 °FPassing clouds.No wind79%30.03 "Hg10 mi
9:53 PM33 °FPassing clouds.No wind82%30.06 "Hg10 mi
8:53 PM33 °FPassing clouds.6 mph82%30.06 "Hg10 mi
7:53 PM35 °FPassing clouds.No wind82%30.07 "Hg10 mi
6:53 PM35 °FPassing clouds.3 mph78%30.09 "Hg10 mi
5:53 PM38 °FPassing clouds.3 mph68%30.08 "Hg10 mi
4:53 PM42 °FScattered clouds.7 mph55%30.04 "Hg10 mi
3:53 PM48 °FScattered clouds.6 mph36%30.05 "Hg10 mi
2:53 PM50 °FScattered clouds.3 mph36%30.05 "Hg10 mi
1:53 PM45 °FScattered clouds.5 mph44%30.06 "Hg10 mi
12:53 PM43 °FBroken clouds.No wind51%30.09 "Hg10 mi
11:53 AM42 °FPartly sunny.No wind57%30.12 "Hg10 mi
10:53 AM39 °FPartly sunny.5 mph67%30.12 "Hg10 mi
9:53 AM37 °FBroken clouds.3 mph67%30.16 "Hg10 mi
8:53 AM33 °FMostly cloudy.No wind78%30.15 "Hg10 mi
7:53 AM31 °FPartly sunny.No wind82%30.13 "Hg10 mi
6:53 AM28 °FPassing clouds.5 mph85%30.13 "Hg10 mi
5:53 AM29 °FPassing clouds.No wind85%30.12 "Hg10 mi
Weather by CustomWeather, © 2014

See weather overviewHow to use our weather pages